Theta_e
294 294 294 295 297 298 299 300 300 300 300 299 300 300 300 300 298 298 297 297 298 300 299 300 301 302 303 303 306 307 306 307 306 309 311 309 311 312 312 311 313 313 315 315 314 315 316 313 313 316 318 316 315 315
293 294 295 297 298 299 300 300 300 300 300 301 300 301 300 301 300 298 298 297 298 299 299 299 299 300 301 303 303 304 306 307 306 308 308 309 313 314 311 311 312 314 312 313 312 312 312 316 317 315 315 315 314 313
294 295 297 298 300 299 299 299 299 299 299 300 300 301 300 300 301 299 297 297 298 300 299 300 300 300 301 301 303 306 305 306 307 308 310 311 312 310 313 311 312 314 312 315 314 315 316 316 313 312 312 312 311 311
295 297 299 300 299 299 299 299 299 300 300 299 300 300 300 300 301 300 297 297 297 299 299 300 299 299 300 303 302 304 305 305 306 306 308 311 313 310 312 311 311 312 313 313 314 314 314 312 311 310 309 308 307 308
297 299 299 299 299 298 299 299 299 299 299 299 300 300 299 300 301 301 296 298 297 300 301 301 300 301 301 301 303 304 305 305 305 305 306 311 309 311 311 311 313 312 311 315 316 309 310 308 307 307 307 306 305 305
298 299 299 299 299 299 300 300 300 300 300 299 300 300 300 300 301 295 295 298 298 299 302 306 304 302 303 301 303 304 306 305 304 304 307 309 308 311 314 312 307 306 305 304 304 303 307 305 302 301 302 302 301 300
298 298 298 298 299 300 300 300 300 300 300 299 300 300 300 301 297 299 301 299 298 299 301 304 306 303 303 304 305 306 305 305 304 305 307 308 310 310 311 312 304 301 303 300 300 301 304 301 301 300 299 299 299 296
298 297 298 299 300 299 300 300 300 300 300 300 300 300 300 297 298 299 302 300 299 300 301 303 305 306 305 306 306 305 305 304 304 305 307 308 309 310 308 300 298 297 299 297 297 299 300 299 298 298 297 297 297 294
297 298 299 299 299 300 300 300 300 300 300 300 300 299 297 298 299 301 299 299 300 301 303 305 306 308 305 306 304 304 303 304 303 305 306 309 308 300 297 296 294 294 295 295 295 298 295 296 295 295 294 292 292 291
296 299 299 300 300 299 300 300 299 298 298 297 298 298 297 301 299 299 299 299 301 302 304 305 306 307 306 306 306 305 305 307 308 307 307 308 297 294 293 293 292 292 292 292 293 292 292 291 291 291 290 288 288 286
297 299 299 299 298 298 298 298 298 298 299 300 300 300 300 300 300 301 301 304 304 305 304 305 306 306 304 307 307 307 306 307 308 308 308 307 298 293 291 291 290 289 289 289 289 288 288 288 288 289 287 285 284 282
298 298 298 298 298 297 298 299 299 300 300 300 298 298 299 301 303 304 304 304 304 304 303 305 305 305 303 302 306 304 305 306 308 305 307 300 293 290 289 289 287 286 287 286 286 286 285 285 286 285 283 282 281 280
298 299 298 298 298 298 298 299 298 297 299 298 298 297 300 299 304 305 303 305 304 302 302 303 302 302 302 303 302 304 308 307 304 307 298 293 289 288 287 286 285 284 284 283 283 282 281 281 281 281 280 280 278 278
298 299 299 299 299 298 298 294 293 296 296 297 299 296 299 298 297 296 298 299 296 298 300 302 303 304 302 303 303 303 301 303 305 304 294 289 287 287 286 285 284 283 282 281 280 280 279 278 278 278 278 277 276 276
294 295 295 295 298 299 295 293 294 294 293 294 296 296 294 293 294 295 295 296 295 297 300 303 303 302 301 300 300 301 301 301 297 294 290 287 286 285 284 284 283 282 281 281 280 279 278 277 277 276 276 275 275 274
293 293 292 293 294 295 295 293 292 292 292 291 291 295 295 296 295 294 296 295 294 297 299 302 302 301 299 299 299 298 301 297 292 289 287 285 284 283 282 282 282 282 281 280 279 278 277 277 276 275 274 274 274 273
296 297 290 289 290 291 292 293 291 290 291 291 290 291 293 292 292 292 292 293 294 298 299 301 299 297 297 297 293 290 290 288 287 285 284 284 283 282 282 282 281 281 281 280 279 279 278 277 277 276 276 275 274 273
297 289 289 291 293 292 292 292 291 291 290 291 290 290 289 291 291 291 290 292 295 295 295 294 295 293 293 294 290 287 286 286 285 284 284 283 282 282 282 281 281 280 280 280 280 279 278 278 278 277 276 275 275 274
298 294 291 292 293 293 292 292 292 290 289 289 290 290 289 289 289 289 290 290 290 291 292 291 290 290 289 288 287 286 286 285 284 282 281 281 281 280 280 280 280 280 280 280 279 278 277 278 278 278 278 277 276 275
294 293 291 292 294 293 292 292 292 292 292 290 290 289 289 288 289 289 289 290 289 288 287 287 288 288 287 287 287 286 285 285 284 283 283 282 281 281 281 281 281 280 279 279 279 278 278 277 276 275 275 275 275 274
293 292 293 294 293 293 293 293 292 291 291 290 290 290 289 289 289 289 288 287 286 286 285 284 284 283 283 284 284 284 284 285 285 285 283 282 281 281 280 280 280 280 280 279 278 277 277 276 275 275 274 273 272 271
294 294 294 293 293 293 293 293 292 292 292 290 290 291 292 291 289 288 286 285 284 285 284 283 283 282 282 282 281 281 281 281 281 281 281 281 282 280 279 279 279 278 278 277 277 276 275 274 274 273 273 272 272 270
294 295 295 294 294 292 292 293 293 293 292 290 291 291 291 290 287 288 285 283 283 283 282 282 281 280 280 280 280 280 281 281 280 280 280 279 278 278 278 277 277 277 277 275 275 273 272 271 271 272 271 272 271 270
291 292 295 295 293 292 293 293 292 292 291 292 290 290 290 289 288 288 286 284 282 282 281 281 281 281 281 281 281 279 279 279 279 278 278 278 278 276 276 275 275 274 274 274 274 273 272 271 270 271 271 271 271 271
294 289 293 293 294 293 292 293 292 292 292 291 290 289 288 289 290 289 287 283 283 283 283 282 283 284 283 281 279 277 278 279 279 277 276 277 276 276 275 274 273 272 273 274 273 272 272 271 271 271 271 271 270 270
290 288 292 293 293 294 293 293 292 292 291 290 289 288 289 291 289 288 286 284 284 283 283 283 283 283 282 281 280 278 276 276 277 277 275 274 275 276 276 276 275 273 272 272 272 272 271 271 270 269 270 268 267 267
291 289 287 287 290 291 292 293 292 292 291 289 289 289 290 289 287 285 285 284 284 282 282 282 282 282 280 278 276 275 274 273 274 273 272 272 272 272 272 272 273 270 270 270 270 271 271 270 270 269 269 269 269 268
286 287 286 286 287 288 290 290 290 289 288 288 289 287 288 287 285 284 283 282 280 280 279 279 278 278 277 276 274 273 272 271 271 272 272 271 271 270 269 267 267 268 267 268 268 268 269 269 269 269 269 269 268 268
285 283 281 280 283 282 283 285 285 282 282 286 286 283 280 280 280 280 280 279 278 278 277 276 275 275 274 274 274 274 275 274 275 273 274 275 274 270 269 269 269 268 269 268 267 267 266 266 267 267 267 267 267 267
283 283 281 280 280 280 280 281 280 280 280 279 278 278 279 279 278 278 278 278 278 278 277 276 276 275 275 275 274 273 272 272 271 272 274 273 271 269 269 269 269 268 267 268 268 268 267 267 267 267 266 267 267 268
284 284 282 280 279 279 279 281 282 282 282 280 280 278 277 276 275 275 277 277 277 277 276 276 276 275 275 275 275 273 273 269 267 268 269 269 269 269 268 267 267 267 267 267 267 267 267 266 267 268 268 267 267 266
284 282 281 279 279 280 281 283 281 281 280 281 280 279 280 280 278 276 275 276 276 277 276 276 275 274 272 271 270 270 269 268 267 267 268 268 267 266 266 266 265 266 266 265 266 266 266 265 265 266 266 266 265 264
284 283 281 280 279 281 281 284 283 283 283 282 282 282 281 281 279 275 272 273 276 276 275 273 272 270 270 270 269 268 267 266 266 265 265 265 265 264 265 265 265 265 265 265 265 265 265 265 265 264 264 264 264 263
Wind_Speed
31 36 35 37 35 32 28 25 24 24 25 28 30 31 32 37 39 43 35 27 25 6 12 15 18 14 11 6 6 3 1 3 2 3 4 6 5 5 9 6 12 11 9 6 8 5 11 3 5 6 8 9 6 10
37 36 37 35 30 23 23 24 24 24 23 25 27 27 30 33 44 46 14 35 27 9 6 17 32 26 15 9 1 1 3 2 5 5 6 3 4 2 8 3 13 6 7 6 8 7 5 9 13 10 8 10 11 11
36 37 37 29 21 22 25 25 25 25 25 26 25 25 27 26 39 47 28 32 19 7 9 13 16 22 18 22 12 3 2 4 4 6 3 3 6 5 3 5 2 3 8 2 5 4 12 8 13 11 13 13 14 12
36 34 24 23 25 30 31 29 30 30 29 27 28 27 29 29 31 46 27 30 27 3 5 10 22 31 28 12 19 12 10 6 5 4 2 3 3 5 5 7 4 0 1 13 9 10 11 13 7 7 14 12 12 11
31 25 24 25 29 33 33 36 35 34 31 29 29 28 26 29 30 39 31 36 40 8 6 10 16 17 22 28 13 13 10 6 2 2 2 4 3 4 6 4 4 5 7 4 4 8 8 7 11 13 12 11 11 11
25 23 25 27 33 33 33 31 33 32 30 29 28 29 25 26 30 24 3 24 39 31 3 3 7 14 13 17 17 10 8 5 2 2 3 4 8 2 2 0 5 10 11 14 4 10 8 10 13 12 10 10 10 10
24 25 27 30 30 28 22 17 6 11 22 26 26 28 26 32 40 8 4 12 41 26 2 2 3 5 13 12 4 5 7 2 2 1 3 3 3 5 2 1 5 11 9 11 11 11 8 13 6 10 11 11 10 12
23 24 26 25 24 19 12 3 5 12 18 22 26 26 30 36 24 4 3 14 41 7 3 3 3 3 10 3 4 4 2 3 4 1 3 4 2 3 3 7 8 11 9 13 13 10 9 9 10 11 12 12 9 10
19 20 17 22 13 4 4 12 18 23 29 28 30 41 27 8 3 6 20 37 19 3 4 4 3 2 7 2 3 2 2 2 1 2 3 3 3 4 6 8 9 10 9 11 11 9 12 11 11 11 10 10 9 9
13 11 16 7 5 8 19 31 38 37 42 40 24 6 3 9 41 31 7 2 2 2 2 3 2 2 2 3 3 3 1 2 2 4 1 2 3 7 7 8 9 10 11 11 10 11 11 10 10 11 9 9 9 8
7 15 23 27 26 37 41 41 43 34 19 3 2 3 34 32 6 2 3 4 4 4 4 2 4 3 1 3 3 2 3 3 3 3 4 3 3 4 6 8 9 11 11 10 10 10 10 9 9 8 9 10 11 12
12 19 18 26 31 38 44 28 11 4 4 10 16 12 5 2 3 4 4 3 4 4 2 2 3 3 3 3 0 2 3 1 1 4 2 4 4 8 9 10 11 11 11 11 14 11 12 14 11 11 11 11 13 14
15 14 22 22 27 29 21 7 21 19 21 9 6 4 1 2 2 4 6 4 4 2 2 2 3 2 2 1 1 2 4 1 1 1 3 4 7 7 8 9 10 12 13 13 13 15 15 14 17 16 15 16 17 18
14 16 12 14 13 11 15 10 10 6 7 4 2 4 5 3 4 4 4 4 2 2 3 1 3 2 1 2 2 2 2 2 1 3 4 5 7 8 8 8 8 8 9 9 11 14 15 15 16 17 17 16 17 18
18 18 14 10 14 18 6 12 13 12 6 4 4 4 4 3 4 2 2 4 3 2 2 3 4 2 2 2 2 3 2 3 6 4 4 6 8 7 7 7 7 7 6 8 12 12 12 13 15 17 17 18 19 19
13 11 8 12 11 14 6 7 9 5 3 3 6 2 2 7 6 7 6 6 4 3 2 1 2 3 3 2 3 5 3 5 4 4 5 6 6 6 6 7 8 10 11 11 12 13 14 13 15 16 17 17 17 17
3 4 10 11 11 10 7 4 5 5 4 4 4 6 4 6 6 4 5 4 5 3 3 2 4 3 1 3 3 5 4 5 6 5 5 7 7 6 5 7 7 8 10 11 11 12 13 12 12 13 15 13 14 15
5 12 16 11 7 5 4 6 4 4 6 6 4 5 6 5 5 5 4 5 4 3 3 3 3 5 5 3 3 3 4 6 6 6 6 6 8 10 9 8 8 9 10 10 10 10 10 10 11 10 10 10 10 10
11 11 9 9 8 5 3 4 4 4 4 3 3 4 5 6 6 6 5 5 8 7 3 3 5 3 3 4 7 7 6 6 6 6 5 8 8 7 7 8 9 9 9 8 8 9 9 10 8 7 6 6 8 7
12 14 13 10 6 4 4 3 4 5 3 3 3 6 5 4 4 5 6 6 6 4 5 4 4 6 6 7 6 6 6 6 6 6 5 5 6 6 9 7 7 7 8 7 7 6 7 7 7 8 8 9 8 8
16 12 6 6 6 8 4 3 4 5 4 3 5 4 4 5 6 6 6 5 5 4 4 4 6 7 12 10 9 9 10 7 6 5 6 4 5 6 6 5 5 6 6 5 6 6 7 6 6 6 7 8 8 7
7 6 5 7 4 4 4 6 4 4 3 5 3 3 3 3 3 4 5 5 4 5 3 6 6 6 6 7 10 10 9 10 10 11 10 5 3 5 5 4 5 5 5 5 5 6 5 5 4 5 5 6 7 7
7 3 3 3 4 4 2 1 3 3 4 5 4 3 2 3 2 3 4 3 3 4 8 8 11 13 12 10 10 9 7 8 8 7 6 7 6 5 5 5 5 3 4 5 5 6 5 3 4 4 4 4 6 5
4 4 3 3 4 4 2 1 2 3 3 2 3 4 3 3 2 3 4 3 4 8 6 9 11 7 9 9 5 8 7 7 8 7 5 4 6 6 5 5 5 6 6 4 4 5 5 3 1 3 3 3 4 2
2 5 2 4 3 4 4 4 3 3 3 3 3 3 3 3 2 3 3 4 6 6 5 7 6 5 6 6 7 6 5 5 6 7 6 5 4 4 4 4 5 4 3 0 3 3 3 2 1 1 1 3 3 2
5 5 4 2 2 3 4 4 4 5 4 3 3 4 3 2 3 4 3 7 7 7 5 5 5 5 5 7 6 7 6 4 3 8 6 6 6 6 4 2 1 7 5 5 2 2 3 0 2 0 1 1 1 4
3 3 3 2 1 4 4 4 5 4 3 3 4 4 3 3 3 2 5 8 7 11 8 6 4 7 8 10 9 8 7 8 10 9 6 6 7 7 8 9 7 6 4 3 3 4 1 2 1 2 2 2 2 2
4 4 4 3 5 5 3 3 2 2 3 1 3 3 2 3 3 3 3 14 15 13 12 11 11 11 11 10 10 9 8 8 8 7 7 7 7 7 7 6 5 3 3 1 4 3 4 3 2 2 3 4 5 3
3 3 4 5 5 5 6 4 3 3 4 1 3 3 3 3 6 11 16 14 14 13 12 11 11 11 11 10 9 8 5 4 2 3 2 2 5 6 4 3 3 3 3 1 3 1 2 2 4 4 5 5 6 7
3 2 4 5 4 4 4 4 3 2 5 7 5 10 10 12 15 13 13 12 11 11 11 11 10 9 9 8 7 6 6 6 5 5 5 5 7 4 3 2 2 2 3 4 4 3 3 3 4 6 5 4 6 7
3 3 4 5 4 5 5 6 12 11 9 10 8 9 8 4 8 13 11 12 12 11 11 10 9 7 7 6 6 5 6 4 4 5 5 4 4 3 3 3 2 3 3 4 4 5 6 6 6 7 6 7 8 9
2 3 5 5 5 5 3 4 6 9 7 7 6 8 6 5 3 3 2 5 8 8 9 9 10 9 8 7 7 7 7 8 6 5 4 3 4 3 3 2 4 4 4 4 4 5 5 6 6 7 8 8 9 10
9 9 9 8 5 7 4 3 4 5 4 4 3 3 4 3 4 3 3 5 4 11 10 13 12 10 9 9 9 9 7 6 4 4 4 3 2 3 4 3 3 4 4 4 5 5 6 6 7 8 9 10 11 11
Wind_Direction
295 302 299 300 299 298 293 285 280 271 263 252 247 241 237 224 214 204 213 209 202 229 252 262 263 269 279 279 283 72 310 123 118 197 237 238 259 253 261 181 187 178 187 197 227 244 240 222 307 310 79 80 44 50
301 301 302 300 297 290 291 288 282 274 264 254 246 240 232 232 210 203 204 205 206 220 251 246 259 273 296 318 131 237 285 138 176 223 235 272 259 284 271 269 172 192 203 194 190 215 266 51 90 84 68 68 43 38
303 304 303 295 286 292 293 288 280 275 269 253 243 232 222 219 211 198 197 188 191 216 257 262 253 260 259 257 226 208 220 217 263 18 319 282 263 279 273 262 230 333 249 75 284 35 49 32 53 60 53 51 44 28
305 309 299 292 292 294 296 283 280 274 262 250 237 229 223 216 209 198 185 180 177 151 230 259 235 237 249 258 245 229 250 254 320 350 280 260 259 277 269 266 251 350 219 216 206 66 93 57 69 26 63 49 40 25
309 305 303 298 301 301 293 291 281 267 255 242 230 222 215 212 208 196 178 179 182 194 200 239 255 230 219 224 249 239 216 243 299 290 208 254 256 281 297 307 36 28 0 6 73 39 76 97 60 28 42 28 28 15
310 303 303 301 308 307 305 296 284 256 235 222 215 209 204 195 189 130 115 183 191 211 309 279 302 218 203 195 209 230 208 221 195 228 275 282 277 11 333 343 36 47 58 39 42 350 57 73 51 37 31 25 23 37
307 304 308 311 309 312 308 313 322 182 194 195 197 192 185 170 151 155 155 176 188 196 241 285 269 205 184 182 184 211 201 178 185 162 257 262 351 340 219 44 32 15 41 42 26 3 32 36 23 11 15 21 28 37
310 306 312 312 311 307 309 314 148 152 161 170 174 174 167 148 147 163 299 179 163 143 167 237 264 139 155 148 175 171 170 151 192 224 263 252 199 187 65 64 43 21 356 35 8 9 43 18 21 21 15 15 13 36
314 320 321 319 321 315 107 124 125 128 126 129 140 124 110 105 103 87 126 140 148 158 190 213 212 188 156 152 106 98 117 168 160 224 227 276 21 56 40 24 29 17 12 358 348 11 16 12 12 11 19 23 21 27
338 343 339 346 95 127 121 128 123 120 118 114 109 74 96 111 123 118 63 85 145 268 244 231 139 124 200 149 136 130 168 179 211 203 204 79 78 73 35 28 25 15 7 7 5 5 3 3 2 8 44 46 40 42
31 43 95 102 107 108 114 121 124 118 115 89 84 64 112 132 103 97 137 169 165 198 206 220 160 141 175 184 143 200 174 189 225 153 202 138 91 65 48 40 31 24 13 24 16 27 22 14 6 25 47 48 52 57
117 90 99 114 117 122 120 121 127 340 95 101 109 93 83 127 173 157 156 151 198 145 110 157 73 64 86 38 324 176 177 199 237 139 215 87 78 51 39 38 36 28 22 36 35 35 37 30 34 53 58 63 67 74
146 119 120 110 134 141 144 88 98 74 101 87 50 41 289 23 150 174 155 156 118 44 121 157 108 79 118 129 187 177 208 103 262 102 66 61 70 48 39 29 43 38 36 43 44 48 51 50 45 56 61 63 69 67
149 153 135 134 133 149 136 109 45 65 64 61 48 62 8 72 53 30 28 65 72 18 62 71 102 73 11 82 331 85 27 291 208 144 72 85 66 60 57 55 55 49 55 60 62 65 64 62 64 62 67 75 79 76
116 124 121 117 137 150 147 47 34 40 50 53 15 56 65 94 66 52 49 79 31 336 336 110 89 69 49 99 40 130 152 84 27 59 84 77 69 63 58 63 76 77 72 70 73 74 76 74 72 70 66 69 69 70
117 100 113 127 136 151 150 57 47 69 66 62 34 93 10 104 70 44 46 65 11 344 310 241 115 96 54 55 67 19 337 49 60 73 91 92 81 73 71 64 64 69 78 87 90 91 89 86 87 86 81 76 72 69
140 115 155 124 109 110 125 82 51 53 61 53 53 10 54 63 58 46 20 8 321 315 41 352 58 57 147 72 68 12 35 94 99 86 75 67 80 88 86 83 79 93 95 94 92 92 94 97 98 92 86 83 82 79
93 128 131 126 128 91 58 48 75 74 62 47 75 69 52 36 70 57 30 1 12 52 32 59 30 44 26 46 84 106 90 80 77 88 88 83 67 61 75 81 86 89 86 87 97 107 118 118 102 101 108 113 103 92
134 145 134 87 86 86 76 47 59 84 74 94 97 87 79 67 53 42 38 50 49 45 86 64 59 53 70 82 109 118 129 127 118 106 91 78 90 100 101 101 87 77 72 80 84 84 74 63 70 83 97 102 90 79
118 113 100 76 59 89 83 68 80 90 91 104 94 72 74 70 54 53 43 41 54 56 54 46 60 72 75 77 86 96 107 133 140 134 124 123 112 74 50 72 95 118 111 109 102 116 112 88 67 53 52 49 78 79
102 114 78 79 60 60 85 87 70 105 125 95 132 89 81 79 56 54 52 40 50 34 76 82 86 67 54 67 84 86 48 67 49 89 119 111 87 93 90 76 62 58 77 91 101 74 54 63 61 67 74 71 69 65
126 129 86 53 75 67 66 36 100 103 86 115 117 94 112 89 79 44 69 55 61 37 83 115 120 118 90 67 68 78 85 86 86 84 84 101 96 81 63 51 74 75 68 56 65 71 67 59 60 94 102 94 69 62
117 82 65 82 85 66 98 313 93 127 111 131 140 104 98 84 77 136 83 68 75 74 89 88 86 97 111 115 103 91 92 95 94 96 93 90 90 77 65 47 43 53 93 65 57 72 73 96 67 84 118 129 126 126
85 56 50 70 74 99 146 93 105 100 117 123 104 103 90 107 143 74 79 76 115 127 122 135 136 132 131 123 98 88 79 93 98 83 65 96 97 71 65 67 58 43 39 66 75 83 81 75 112 77 59 63 42 58
101 18 14 83 127 130 122 127 124 113 116 129 121 125 129 184 97 91 103 133 153 146 149 159 166 137 114 104 111 99 57 57 88 95 61 61 98 127 110 91 77 53 7 274 139 123 77 48 70 71 39 46 55 12
80 18 18 84 139 125 142 132 152 141 116 105 94 117 180 130 89 91 101 148 147 144 153 157 137 126 109 108 122 106 76 56 83 97 65 43 33 9 22 353 82 108 50 19 13 143 138 296 83 33 247 189 317 321
95 81 64 343 75 98 96 77 92 101 107 118 144 149 150 104 99 86 107 122 132 136 133 118 128 121 116 104 98 91 78 66 72 88 86 70 59 46 33 34 48 56 42 27 5 350 30 164 213 258 285 300 252 236
69 22 106 67 68 22 62 65 78 82 85 79 109 66 70 78 106 123 98 117 114 115 106 91 86 99 108 111 112 107 97 95 96 103 108 96 82 71 65 54 58 89 17 260 50 24 357 349 317 281 282 307 330 320
80 99 84 44 62 54 30 23 65 49 338 343 110 94 94 60 106 112 115 117 121 125 121 115 106 107 106 104 100 96 78 49 34 72 5 35 129 93 57 54 50 27 13 336 19 69 331 354 343 301 339 328 322 327
104 88 94 62 57 62 35 21 90 87 44 74 93 107 93 84 90 107 121 135 134 127 126 128 131 124 123 123 115 99 72 55 41 17 6 48 71 77 68 47 21 26 341 336 342 321 315 310 274 291 279 276 296 310
113 103 84 71 75 101 112 86 69 82 87 103 114 108 118 112 66 45 70 97 107 120 129 124 104 110 114 129 129 147 134 72 78 101 89 89 91 77 66 39 8 357 349 341 339 326 340 333 311 307 310 316 319 314
74 95 120 110 132 159 221 99 92 113 117 108 107 127 148 126 105 114 102 131 145 135 127 133 133 101 88 89 90 101 93 105 98 91 80 80 82 72 52 26 2 351 337 333 325 324 324 323 319 321 318 319 325 324
91 94 107 106 133 170 198 164 115 117 113 104 61 45 39 55 100 106 154 59 33 143 115 102 106 114 116 116 115 110 118 134 119 108 113 121 118 110 75 28 11 354 346 339 334 330 326 324 323 324 322 317 316 316